Weather History for Oroville, CA

Change the Weather History Date:

Friday, July 5, 2013

  Actual Average Record
Temperature  
Mean Temperature 82 °F -  
Max Temperature 93 °F 96 °F 110 °F (1970)
Min Temperature 72 °F 62 °F 54 °F (1954)
Cooling Degree Days 16    
Growing Degree Days 32 (Base 50)    
Moisture  
Dew Point 54 °F    
Average Humidity 39    
Maximum Humidity 62    
Minimum Humidity 27    
Precipitation  
Precipitation 0.00 in - - ()
Sea Level Pressure  
Sea Level Pressure 29.67 in    
Wind  
Wind Speed 8 mph (SSE)    
Max Wind Speed 13 mph    
Max Gust Speed 18 mph    
Visibility 10 miles    
Events      
Averages and records for this station are not official NWS values.
T = Trace of Precipitation, MM = Missing Value Source: NWS Daily Summary

Daily Weather History Graph

Daily Weather History Graph

Search for Another Location

Airport:

Trip Planner

Search our weather history database for the weather conditions in past years. The results will help you decide how hot, cold, wet, or windy it might be!

Date:

Astronomy

Jul. 05, 2013 Rise Set
Actual Time 5:45 AM PDT 8:36 PM PDT
Civil Twilight 5:13 AM PDT 9:08 PM PDT
Nautical Twilight 4:32 AM PDT 9:49 PM PDT
Astronomical Twilight 3:46 AM PDT 10:35 PM PDT
Moon 3:48 AM PDT (7/5) 6:36 PM PDT (7/5)
Length of Visible Light 15h 55m
Length of Day
14h 51m
Waning Crescent, 6% of the Moon is Illuminated
Jul 5
Waning Crescent
Jul 8
New
Jul 15
First Quarter
Jul 22
Full
Jul 29
Last Quarter

Hourly Weather History & Observations

Time (PDT) Temp. Heat Index Dew Point Humidity Pressure Visibility Wind Dir Wind Speed Gust Speed Precip Events Conditions
12:53 AM 84.0 °F 84.4 °F 61.0 °F 46% 29.61 in 10.0 mi SSE 4.6 mph - N/A   Clear
1:53 AM 80.1 °F 82.1 °F 66.0 °F 62% 29.62 in 10.0 mi Calm Calm - N/A   Clear
2:53 AM 80.1 °F 80.7 °F 59.0 °F 48% 29.62 in 10.0 mi SSE 6.9 mph - N/A   Clear
3:53 AM 78.1 °F - 57.0 °F 48% 29.63 in 10.0 mi ESE 9.2 mph - N/A   Clear
4:53 AM 75.0 °F - 53.1 °F 46% 29.63 in 10.0 mi South 11.5 mph - N/A   Clear
5:53 AM 72.0 °F - 50.0 °F 46% 29.64 in 10.0 mi SSE 6.9 mph - N/A   Clear
6:53 AM 72.0 °F - 50.0 °F 46% 29.67 in 10.0 mi SE 9.2 mph - N/A   Clear
7:53 AM 75.0 °F - 48.9 °F 40% 29.69 in 10.0 mi SE 4.6 mph - N/A   Clear
8:53 AM 77.0 °F - 48.9 °F 37% 29.71 in 10.0 mi South 12.7 mph 18.4 mph N/A   Clear
9:53 AM 81.0 °F - 48.0 °F 31% 29.71 in 10.0 mi South 11.5 mph - N/A   Clear
10:53 AM 82.9 °F - 50.0 °F 32% 29.71 in 10.0 mi SSE 12.7 mph - N/A   Clear
11:53 AM 84.0 °F - 52.0 °F 33% 29.72 in 10.0 mi SSW 9.2 mph - N/A   Clear
12:53 PM 87.1 °F - 51.1 °F 29% 29.71 in 10.0 mi SSW 9.2 mph 18.4 mph N/A   Clear
1:53 PM 88.0 °F 85.9 °F 54.0 °F 31% 29.70 in 10.0 mi SE 10.4 mph - N/A   Clear
2:53 PM 90.0 °F 87.7 °F 54.0 °F 29% 29.68 in 10.0 mi South 11.5 mph - N/A   Clear
3:53 PM 91.9 °F 89.5 °F 54.0 °F 27% 29.65 in 10.0 mi South 10.4 mph - N/A   Clear
4:53 PM 91.0 °F 88.7 °F 54.0 °F 28% 29.64 in 10.0 mi South 10.4 mph - N/A   Clear
5:53 PM 91.0 °F 88.5 °F 53.1 °F 27% 29.63 in 10.0 mi South 11.5 mph 16.1 mph N/A   Clear
6:53 PM 88.0 °F 86.1 °F 55.0 °F 32% 29.63 in 10.0 mi South 10.4 mph - N/A   Clear
7:53 PM 86.0 °F 84.2 °F 54.0 °F 33% 29.64 in 10.0 mi SSE 9.2 mph - N/A   Clear
8:53 PM 81.0 °F 80.8 °F 55.9 °F 42% 29.66 in 10.0 mi SE 6.9 mph - N/A   Clear
9:53 PM 79.0 °F - 55.9 °F 45% 29.69 in 10.0 mi SSE 8.1 mph - N/A   Clear
10:53 PM 77.0 °F - 57.9 °F 52% 29.70 in 10.0 mi SE 8.1 mph - N/A   Clear
11:53 PM 73.9 °F - 57.0 °F 55% 29.70 in 10.0 mi SSE 5.8 mph - N/A   Clear